Date String (YYYY-MM-DD hh:mm:ss) UTC,Instrument flags,Ambient pressure (hPa),Sample flow (lpm),Bypass flow (lpm),Sample temperature (°C),Ambient temperature (°C),ASC tube jacket temperature (°C),LED temperature (°C),Box temperature (°C),Sample RH (%),Span deviation,Mass concentration (μg/m³),Mass concentration (μg/m³),Mass concentration (μg/m³)
DateTimeUTC,F1_M11,P_M11,Q1_M11,Q2_M11,T1_M11,T2_M11,T3_M11,T4_M11,T5_M11,U1_M11,ZSPAN_M11,X0_M11,X2_M11,X1_M11
2023-02-14 07:00:00,,0804.1,5.00,0.00,22.4,20.8,00.0,31.2,24.2,13.1,0000.0,0002.90,0001.88,0001.41
2023-02-14 07:01:00,,0804.1,5.00,0.00,22.4,20.9,00.0,31.2,24.3,13.0,0000.0,0002.94,0001.91,0001.41
2023-02-14 07:02:00,,0804.0,5.00,0.00,22.4,20.9,00.0,31.2,24.3,13.0,0000.0,0002.81,0001.89,0001.40
2023-02-14 07:03:00,,0804.0,5.00,0.00,22.4,21.0,00.0,31.2,24.3,13.0,0000.0,0002.65,0001.82,0001.39
2023-02-14 07:04:00,,0804.0,4.99,0.00,22.4,21.0,00.0,31.2,24.3,13.0,0000.0,0002.46,0001.75,0001.38
2023-02-14 07:05:00,,0804.0,5.00,0.00,22.4,21.0,00.0,31.2,24.3,12.9,0000.0,0002.87,0001.86,0001.48
2023-02-14 07:06:00,,0803.9,5.01,0.00,22.4,21.1,00.0,31.3,24.3,12.9,0000.0,0003.27,0002.00,0001.61
2023-02-14 07:07:00,,0803.9,4.99,0.00,22.4,21.1,00.0,31.3,24.3,12.9,0000.0,0003.28,0002.04,0001.67
2023-02-14 07:08:00,,0803.9,5.01,0.00,22.4,21.1,00.0,31.3,24.4,12.8,0000.0,0003.43,0002.12,0001.73
2023-02-14 07:09:00,,0804.0,4.99,0.00,22.4,21.1,00.0,31.3,24.4,12.8,0000.0,0003.70,0002.27,0001.84
2023-02-14 07:10:00,,0803.9,4.98,0.00,22.5,21.1,00.0,31.3,24.4,12.8,0000.0,0003.79,0002.39,0001.98
2023-02-14 07:11:00,,0803.8,5.01,0.00,22.5,21.1,00.0,31.3,24.4,12.8,0000.0,0004.01,0002.49,0002.06
2023-02-14 07:12:00,,0803.9,5.01,0.00,22.5,21.1,00.0,31.3,24.4,12.8,0000.0,0004.27,0002.69,0002.23
2023-02-14 07:13:00,,0803.8,5.00,0.00,22.5,21.1,00.0,31.3,24.4,12.8,0000.0,0004.87,0002.99,0002.46
2023-02-14 07:14:00,,0803.9,5.00,0.00,22.5,21.1,00.0,31.3,24.4,12.8,0000.0,0005.48,0003.20,0002.69
2023-02-14 07:15:00,,0803.9,4.98,0.00,22.5,21.1,00.0,31.3,24.4,12.9,0000.0,0005.88,0003.30,0002.82
2023-02-14 07:16:00,,0803.8,5.01,0.00,22.5,21.1,00.0,31.3,24.4,12.9,0000.0,0005.92,0003.32,0002.82
2023-02-14 07:17:00,,0803.9,5.01,0.00,22.5,21.1,00.0,31.3,24.4,12.9,0000.0,0005.95,0003.31,0002.79
2023-02-14 07:18:00,,0803.8,5.00,0.00,22.5,21.0,00.0,31.3,24.3,12.9,0000.0,0006.26,0003.39,0002.86
2023-02-14 07:19:00,,0803.8,5.01,0.00,22.5,20.9,00.0,31.3,24.3,12.9,0000.0,0006.45,0003.46,0002.96
2023-02-14 07:20:00,,0803.7,5.00,0.00,22.4,20.9,00.0,31.3,24.3,12.9,0000.0,0006.69,0003.50,0002.99
2023-02-14 07:21:00,,0803.7,4.99,0.00,22.4,20.9,00.0,31.3,24.3,12.8,0000.0,0006.76,0003.51,0002.96
2023-02-14 07:22:00,,0803.7,5.01,0.00,22.4,20.9,00.0,31.3,24.3,12.7,0000.0,0006.74,0003.51,0002.94
2023-02-14 07:23:00,,0803.7,5.00,0.00,22.4,21.0,00.0,31.3,24.3,12.4,0000.0,0006.47,0003.39,0002.78
2023-02-14 07:24:00,,0803.7,4.99,0.00,22.4,21.0,00.0,31.3,24.3,12.5,0000.0,0006.01,0003.24,0002.56
2023-02-14 07:25:00,,0803.7,4.99,0.00,22.5,21.0,00.0,31.3,24.4,12.5,0000.0,0005.52,0003.06,0002.33
2023-02-14 07:26:00,,0803.6,5.00,0.00,22.5,21.1,00.0,31.3,24.4,12.5,0000.0,0005.25,0002.92,0002.20
2023-02-14 07:27:00,,0803.7,5.00,0.00,22.5,21.1,00.0,31.3,24.4,12.6,0000.0,0004.82,0002.79,0002.14
2023-02-14 07:28:00,,0803.5,5.01,0.00,22.5,21.1,00.0,31.3,24.4,12.7,0000.0,0004.52,0002.71,0002.10
2023-02-14 07:29:00,,0803.5,5.02,0.00,22.5,21.0,00.0,31.3,24.4,12.5,0000.0,0004.26,0002.56,0002.00
2023-02-14 07:30:00,,0803.6,5.00,0.00,22.5,21.0,00.0,31.3,24.4,12.7,0000.0,0004.15,0002.45,0001.87
2023-02-14 07:31:00,,0803.5,5.00,0.00,22.5,21.0,00.0,31.3,24.4,12.8,0000.0,0003.89,0002.30,0001.78
2023-02-14 07:32:00,,0803.5,5.00,0.00,22.5,21.0,00.0,31.3,24.3,12.8,0000.0,0003.85,0002.20,0001.70
2023-02-14 07:33:00,,0803.5,5.00,0.00,22.5,21.0,00.0,31.3,24.3,12.9,0000.0,0003.72,0002.13,0001.64
2023-02-14 07:34:00,,0803.5,5.00,0.00,22.5,21.2,00.0,31.3,24.4,12.9,0000.0,0003.79,0002.18,0001.68
2023-02-14 07:35:00,,0803.5,5.00,0.00,22.6,22.2,00.0,31.2,24.6,12.8,0000.0,0003.85,0002.28,0001.76
2023-02-14 07:36:00,,0803.5,4.98,0.00,22.7,23.0,00.0,31.3,24.8,12.8,0000.0,0003.92,0002.41,0001.87
2023-02-14 07:37:00,,0803.5,5.00,0.00,22.8,22.9,00.0,31.3,24.8,12.8,0000.0,0004.05,0002.61,0002.04
2023-02-14 07:38:00,,0803.5,5.00,0.00,22.8,22.5,00.0,31.4,24.8,12.9,0000.0,0004.44,0002.83,0002.19
2023-02-14 07:39:00,,0803.5,5.01,0.00,22.8,22.3,00.0,31.4,24.8,12.8,0000.0,0004.74,0003.08,0002.38
2023-02-14 07:40:00,,0803.5,5.03,0.00,22.8,22.0,00.0,31.5,24.7,12.9,0000.0,0005.07,0003.25,0002.59
2023-02-14 07:41:00,,0803.5,4.99,0.00,22.8,21.7,00.0,31.5,24.7,12.8,0000.0,0005.47,0003.40,0002.84
2023-02-14 07:42:00,,0803.5,5.00,0.00,22.7,21.5,00.0,31.5,24.6,12.7,0000.0,0005.84,0003.61,0003.18
2023-02-14 07:43:00,,0803.4,5.00,0.00,22.7,21.4,00.0,31.5,24.6,12.7,0000.0,0006.55,0003.86,0003.41
2023-02-14 07:44:00,,0803.4,5.00,0.00,22.7,21.3,00.0,31.5,24.6,12.7,0000.0,0007.84,0004.06,0003.60
2023-02-14 07:45:00,,0803.4,5.00,0.00,22.7,21.3,00.0,31.5,24.6,12.7,0000.0,0008.49,0004.24,0003.75
2023-02-14 07:46:00,,0803.4,5.00,0.00,22.7,21.3,00.0,31.5,24.6,12.7,0000.0,0008.83,0004.46,0003.92
2023-02-14 07:47:00,,0803.4,4.99,0.00,22.7,21.3,00.0,31.5,24.6,12.7,0000.0,0009.55,0004.69,0004.11
2023-02-14 07:48:00,,0803.4,5.00,0.00,22.7,21.3,00.0,31.5,24.6,12.7,0000.0,0009.99,0004.88,0004.25
2023-02-14 07:49:00,,0803.3,5.00,0.00,22.7,21.3,00.0,31.5,24.6,12.7,0000.0,0010.07,0004.96,0004.34
2023-02-14 07:50:00,,0803.3,5.01,0.00,22.7,21.3,00.0,31.5,24.6,12.7,0000.0,0010.08,0004.95,0004.34
2023-02-14 07:51:00,,0803.2,5.00,0.00,22.7,21.2,00.0,31.5,24.6,12.8,0000.0,0010.05,0004.93,0004.34
2023-02-14 07:52:00,,0803.2,5.00,0.00,22.7,21.2,00.0,31.5,24.6,12.8,0000.0,0009.99,0004.92,0004.34
2023-02-14 07:53:00,,0803.2,5.00,0.00,22.7,21.2,00.0,31.5,24.6,12.8,0000.0,0010.17,0004.87,0004.29
2023-02-14 07:54:00,,0803.2,4.99,0.00,22.7,21.2,00.0,31.5,24.6,12.8,0000.0,0010.03,0004.85,0004.26
2023-02-14 07:55:00,,0803.2,5.01,0.00,22.7,21.2,00.0,31.5,24.6,12.8,0000.0,0009.58,0004.85,0004.26
2023-02-14 07:56:00,,0803.2,5.00,0.00,22.7,21.2,00.0,31.5,24.6,12.8,0000.0,0009.62,0004.90,0004.27
2023-02-14 07:57:00,,0803.2,5.00,0.00,22.7,21.2,00.0,31.5,24.5,12.8,0000.0,0009.49,0004.82,0004.22
2023-02-14 07:58:00,,0803.2,5.00,0.00,22.7,21.2,00.0,31.5,24.6,12.9,0000.0,0009.95,0004.73,0004.16
2023-02-14 07:59:00,,0803.2,5.00,0.00,22.7,21.2,00.0,31.5,24.5,12.8,0000.0,0009.80,0004.62,0004.08
